QPF
0.00 0.00 0.00 0.00 0.00 0.00 0.00 0.00 0.00 0.00 0.00 0.00 0.01 0.01 0.02 0.04 0.06 0.07 0.06 0.06 0.05 0.05 0.05 0.06 0.06 0.05 0.04 0.02 0.01 0.01 0.00 0.01 0.01 0.01 0.01 0.02 0.02 0.02 0.01 0.01 0.01 0.01 0.02
0.00 0.00 0.00 0.00 0.00 0.00 0.00 0.00 0.00 0.00 0.00 0.00 0.00 0.00 0.00 0.01 0.02 0.03 0.05 0.07 0.06 0.05 0.04 0.04 0.04 0.05 0.04 0.03 0.02 0.01 0.01 0.01 0.01 0.01 0.02 0.03 0.03 0.03 0.02 0.01 0.01 0.01 0.01
0.00 0.00 0.00 0.00 0.00 0.00 0.00 0.00 0.00 0.00 0.00 0.00 0.00 0.00 0.00 0.00 0.00 0.01 0.02 0.03 0.05 0.05 0.05 0.04 0.03 0.03 0.03 0.03 0.02 0.01 0.01 0.00 0.01 0.01 0.02 0.03 0.05 0.05 0.04 0.03 0.02 0.01 0.01
0.00 0.00 0.00 0.00 0.00 0.00 0.00 0.00 0.00 0.00 0.00 0.00 0.00 0.00 0.00 0.00 0.00 0.00 0.00 0.01 0.02 0.02 0.03 0.04 0.05 0.05 0.04 0.03 0.02 0.01 0.00 0.00 0.01 0.02 0.02 0.04 0.05 0.05 0.04 0.03 0.03 0.02 0.01
0.00 0.00 0.00 0.00 0.00 0.00 0.00 0.00 0.00 0.00 0.00 0.00 0.00 0.00 0.00 0.00 0.00 0.00 0.00 0.00 0.00 0.01 0.01 0.02 0.02 0.03 0.03 0.03 0.02 0.01 0.01 0.00 0.01 0.02 0.03 0.05 0.06 0.07 0.06 0.04 0.03 0.03 0.02
0.00 0.00 0.00 0.00 0.00 0.00 0.00 0.00 0.00 0.00 0.00 0.00 0.00 0.00 0.00 0.00 0.00 0.00 0.00 0.00 0.00 0.01 0.01 0.01 0.01 0.02 0.02 0.02 0.01 0.01 0.00 0.00 0.01 0.02 0.03 0.04 0.04 0.05 0.05 0.04 0.03 0.02 0.02
0.00 0.01 0.01 0.01 0.02 0.02 0.01 0.01 0.00 0.00 0.00 0.00 0.00 0.00 0.00 0.00 0.00 0.00 0.00 0.00 0.00 0.00 0.01 0.01 0.02 0.02 0.02 0.01 0.01 0.01 0.00 0.00 0.01 0.01 0.02 0.02 0.03 0.04 0.05 0.05 0.04 0.02 0.01
0.01 0.01 0.02 0.03 0.04 0.03 0.03 0.02 0.02 0.01 0.01 0.00 0.00 0.00 0.00 0.00 0.00 0.00 0.00 0.00 0.00 0.00 0.01 0.02 0.02 0.03 0.02 0.02 0.01 0.01 0.00 0.00 0.01 0.01 0.02 0.02 0.03 0.03 0.04 0.05 0.05 0.03 0.02
0.01 0.01 0.02 0.03 0.04 0.05 0.05 0.05 0.04 0.03 0.02 0.01 0.01 0.00 0.00 0.00 0.00 0.00 0.00 0.00 0.00 0.00 0.02 0.03 0.04 0.04 0.05 0.04 0.03 0.02 0.01 0.01 0.02 0.03 0.05 0.06 0.06 0.07 0.07 0.07 0.06 0.05 0.04
0.01 0.02 0.03 0.04 0.05 0.06 0.06 0.06 0.06 0.05 0.04 0.02 0.01 0.01 0.00 0.00 0.00 0.00 0.00 0.00 0.00 0.00 0.02 0.04 0.07 0.09 0.10 0.07 0.04 0.03 0.02 0.01 0.01 0.03 0.05 0.08 0.08 0.08 0.08 0.06 0.06 0.05 0.04
0.02 0.03 0.03 0.04 0.05 0.06 0.06 0.06 0.07 0.06 0.05 0.03 0.02 0.01 0.01 0.00 0.00 0.00 0.00 0.00 0.00 0.00 0.02 0.05 0.09 0.14 0.15 0.13 0.08 0.05 0.03 0.02 0.02 0.03 0.04 0.06 0.10 0.11 0.09 0.08 0.08 0.06 0.04
0.02 0.03 0.04 0.04 0.04 0.06 0.07 0.06 0.07 0.07 0.06 0.05 0.03 0.02 0.01 0.01 0.00 0.00 0.00 0.00 0.00 0.00 0.02 0.06 0.13 0.20 0.20 0.19 0.15 0.10 0.08 0.06 0.04 0.04 0.05 0.06 0.08 0.11 0.11 0.09 0.08 0.07 0.04
0.04 0.04 0.04 0.03 0.04 0.05 0.06 0.07 0.07 0.07 0.06 0.05 0.04 0.03 0.01 0.01 0.00 0.00 0.00 0.00 0.00 0.01 0.03 0.08 0.16 0.25 0.28 0.25 0.21 0.17 0.12 0.08 0.06 0.05 0.04 0.05 0.05 0.07 0.08 0.07 0.07 0.05 0.03
0.06 0.05 0.04 0.05 0.04 0.04 0.06 0.06 0.06 0.06 0.05 0.05 0.04 0.03 0.02 0.01 0.01 0.00 0.00 0.00 0.01 0.01 0.05 0.13 0.22 0.31 0.37 0.33 0.27 0.21 0.16 0.11 0.08 0.05 0.04 0.04 0.05 0.05 0.06 0.05 0.03 0.02 0.01
0.06 0.05 0.05 0.05 0.05 0.05 0.05 0.06 0.06 0.07 0.06 0.05 0.03 0.02 0.01 0.01 0.01 0.00 0.00 0.00 0.01 0.02 0.06 0.14 0.27 0.38 0.43 0.38 0.29 0.23 0.19 0.14 0.10 0.07 0.05 0.05 0.05 0.04 0.05 0.03 0.02 0.01 0.01
0.07 0.05 0.04 0.04 0.05 0.04 0.05 0.06 0.05 0.05 0.05 0.04 0.03 0.02 0.01 0.01 0.01 0.01 0.01 0.01 0.02 0.04 0.07 0.15 0.30 0.41 0.42 0.36 0.28 0.24 0.19 0.13 0.09 0.07 0.04 0.04 0.04 0.03 0.03 0.02 0.01 0.00 0.00
0.07 0.04 0.03 0.03 0.04 0.04 0.05 0.06 0.07 0.07 0.06 0.04 0.03 0.02 0.02 0.01 0.01 0.01 0.01 0.02 0.04 0.06 0.10 0.18 0.30 0.38 0.36 0.33 0.25 0.20 0.16 0.11 0.08 0.06 0.03 0.03 0.03 0.02 0.01 0.01 0.01 0.00 0.00
0.07 0.05 0.03 0.04 0.04 0.04 0.04 0.04 0.04 0.05 0.05 0.03 0.02 0.03 0.03 0.02 0.01 0.01 0.02 0.05 0.07 0.10 0.14 0.22 0.30 0.34 0.31 0.27 0.22 0.17 0.12 0.08 0.06 0.04 0.02 0.01 0.02 0.01 0.01 0.00 0.00 0.00 0.00
0.07 0.05 0.04 0.03 0.03 0.03 0.02 0.02 0.03 0.04 0.03 0.02 0.02 0.02 0.03 0.02 0.02 0.03 0.06 0.09 0.12 0.14 0.17 0.23 0.26 0.27 0.24 0.21 0.17 0.12 0.08 0.04 0.03 0.03 0.01 0.01 0.01 0.01 0.00 0.00 0.00 0.00 0.00
0.06 0.07 0.06 0.03 0.02 0.01 0.01 0.02 0.02 0.02 0.02 0.01 0.02 0.02 0.02 0.03 0.03 0.06 0.10 0.14 0.14 0.16 0.18 0.21 0.20 0.19 0.17 0.13 0.10 0.07 0.04 0.02 0.01 0.01 0.00 0.00 0.00 0.00 0.00 0.00 0.00 0.00 0.00
0.06 0.07 0.06 0.03 0.01 0.01 0.01 0.01 0.01 0.01 0.01 0.02 0.02 0.03 0.04 0.04 0.04 0.07 0.11 0.12 0.14 0.17 0.17 0.14 0.11 0.11 0.09 0.06 0.04 0.03 0.01 0.01 0.00 0.00 0.00 0.00 0.00 0.00 0.00 0.00 0.00 0.00 0.00
0.05 0.05 0.04 0.03 0.02 0.01 0.01 0.01 0.01 0.01 0.01 0.02 0.02 0.02 0.03 0.04 0.06 0.08 0.09 0.10 0.12 0.13 0.11 0.07 0.05 0.04 0.03 0.02 0.01 0.01 0.00 0.00 0.00 0.00 0.00 0.00 0.00 0.00 0.00 0.00 0.00 0.00 0.00
0.03 0.03 0.02 0.03 0.02 0.01 0.01 0.01 0.00 0.00 0.01 0.01 0.02 0.02 0.03 0.04 0.07 0.10 0.10 0.09 0.09 0.07 0.05 0.04 0.02 0.01 0.01 0.00 0.00 0.00 0.00 0.00 0.00 0.00 0.00 0.00 0.00 0.00 0.00 0.00 0.00 0.00 0.00
0.01 0.01 0.01 0.03 0.03 0.01 0.01 0.01 0.00 0.00 0.00 0.01 0.01 0.03 0.04 0.08 0.10 0.10 0.08 0.06 0.04 0.03 0.02 0.01 0.01 0.00 0.00 0.00 0.00 0.00 0.00 0.00 0.00 0.00 0.00 0.00 0.00 0.00 0.00 0.00 0.00 0.00 0.00
0.01 0.01 0.01 0.01 0.02 0.01 0.01 0.00 0.00 0.00 0.01 0.01 0.02 0.05 0.07 0.08 0.07 0.05 0.03 0.02 0.01 0.01 0.00 0.00 0.00 0.00 0.00 0.00 0.00 0.00 0.00 0.00 0.00 0.00 0.00 0.00 0.00 0.00 0.00 0.00 0.00 0.00 0.00
0.01 0.01 0.01 0.01 0.01 0.01 0.00 0.00 0.00 0.00 0.01 0.02 0.03 0.05 0.05 0.04 0.03 0.02 0.01 0.00 0.00 0.00 0.00 0.00 0.00 0.00 0.00 0.00 0.00 0.00 0.00 0.00 0.00 0.00 0.00 0.00 0.00 0.00 0.00 0.00 0.00 0.00 0.00
MSLP
1010.11 1009.96 1009.87 1009.82 1009.77 1009.72 1009.66 1009.60 1009.56 1009.54 1009.57 1009.62 1009.70 1009.78 1009.82 1009.82 1009.76 1009.65 1009.50 1009.34 1009.20 1009.11 1009.10 1009.17 1009.32 1009.52 1009.74 1009.96 1010.12 1010.22 1010.24 1010.18 1010.07 1009.92 1009.76 1009.63 1009.54 1009.52 1009.56 1009.66 1009.82 1010.01 1010.21
1009.72 1009.49 1009.30 1009.15 1009.02 1008.90 1008.79 1008.71 1008.67 1008.68 1008.75 1008.86 1009.00 1009.13 1009.25 1009.31 1009.31 1009.25 1009.14 1009.01 1008.88 1008.79 1008.76 1008.80 1008.91 1009.07 1009.26 1009.45 1009.62 1009.74 1009.80 1009.81 1009.77 1009.71 1009.65 1009.61 1009.62 1009.69 1009.81 1009.99 1010.22 1010.48 1010.74
1009.33 1009.00 1008.70 1008.44 1008.20 1007.98 1007.80 1007.68 1007.62 1007.64 1007.73 1007.88 1008.07 1008.28 1008.46 1008.60 1008.68 1008.69 1008.65 1008.58 1008.50 1008.44 1008.42 1008.46 1008.55 1008.69 1008.86 1009.03 1009.18 1009.31 1009.39 1009.44 1009.46 1009.47 1009.49 1009.54 1009.64 1009.80 1010.02 1010.29 1010.60 1010.94 1011.27
1008.91 1008.49 1008.09 1007.71 1007.35 1007.03 1006.77 1006.58 1006.49 1006.50 1006.60 1006.78 1007.01 1007.27 1007.52 1007.73 1007.89 1007.99 1008.03 1008.04 1008.04 1008.04 1008.07 1008.13 1008.23 1008.36 1008.51 1008.65 1008.78 1008.88 1008.96 1009.01 1009.05 1009.10 1009.18 1009.30 1009.48 1009.73 1010.04 1010.41 1010.82 1011.25 1011.66
1008.48 1007.98 1007.48 1006.99 1006.53 1006.11 1005.77 1005.53 1005.39 1005.38 1005.47 1005.67 1005.92 1006.22 1006.51 1006.78 1007.01 1007.19 1007.32 1007.42 1007.50 1007.58 1007.67 1007.77 1007.89 1008.02 1008.15 1008.26 1008.34 1008.40 1008.44 1008.46 1008.50 1008.55 1008.66 1008.83 1009.08 1009.40 1009.81 1010.28 1010.79 1011.31 1011.82
1008.04 1007.47 1006.90 1006.32 1005.78 1005.29 1004.89 1004.59 1004.43 1004.39 1004.47 1004.66 1004.92 1005.22 1005.54 1005.84 1006.11 1006.35 1006.55 1006.73 1006.89 1007.05 1007.20 1007.35 1007.50 1007.63 1007.73 1007.80 1007.83 1007.82 1007.80 1007.77 1007.76 1007.80 1007.90 1008.10 1008.40 1008.80 1009.29 1009.86 1010.48 1011.11 1011.73
1007.58 1006.98 1006.36 1005.74 1005.14 1004.61 1004.17 1003.85 1003.65 1003.59 1003.65 1003.82 1004.06 1004.35 1004.66 1004.96 1005.25 1005.52 1005.76 1006.00 1006.22 1006.44 1006.66 1006.85 1007.02 1007.14 1007.22 1007.24 1007.21 1007.13 1007.03 1006.93 1006.87 1006.87 1006.97 1007.18 1007.52 1007.98 1008.55 1009.22 1009.94 1010.69 1011.42
1007.12 1006.51 1005.87 1005.23 1004.62 1004.08 1003.62 1003.29 1003.08 1003.00 1003.04 1003.17 1003.38 1003.63 1003.90 1004.18 1004.45 1004.72 1004.99 1005.25 1005.52 1005.78 1006.03 1006.26 1006.44 1006.56 1006.61 1006.58 1006.49 1006.35 1006.18 1006.02 1005.91 1005.88 1005.97 1006.19 1006.57 1007.08 1007.73 1008.47 1009.29 1010.14 1010.98
1006.65 1006.04 1005.41 1004.78 1004.18 1003.65 1003.20 1002.87 1002.65 1002.56 1002.57 1002.66 1002.82 1003.02 1003.24 1003.47 1003.72 1003.97 1004.23 1004.50 1004.79 1005.08 1005.35 1005.59 1005.78 1005.90 1005.93 1005.87 1005.73 1005.54 1005.33 1005.13 1005.00 1004.96 1005.05 1005.30 1005.71 1006.27 1006.98 1007.79 1008.68 1009.61 1010.53
1006.16 1005.56 1004.95 1004.34 1003.76 1003.25 1002.82 1002.49 1002.28 1002.17 1002.15 1002.21 1002.32 1002.46 1002.63 1002.81 1003.01 1003.24 1003.48 1003.76 1004.05 1004.35 1004.64 1004.89 1005.08 1005.20 1005.22 1005.15 1005.00 1004.80 1004.58 1004.39 1004.26 1004.24 1004.36 1004.65 1005.10 1005.71 1006.46 1007.32 1008.25 1009.22 1010.18
1005.63 1005.04 1004.45 1003.85 1003.30 1002.81 1002.39 1002.08 1001.86 1001.74 1001.69 1001.71 1001.78 1001.88 1002.00 1002.14 1002.31 1002.51 1002.75 1003.02 1003.31 1003.62 1003.92 1004.18 1004.39 1004.51 1004.55 1004.49 1004.36 1004.19 1004.00 1003.85 1003.77 1003.81 1003.99 1004.33 1004.83 1005.49 1006.26 1007.14 1008.08 1009.04 1009.99
1005.07 1004.49 1003.89 1003.31 1002.77 1002.28 1001.88 1001.57 1001.35 1001.21 1001.14 1001.13 1001.16 1001.23 1001.32 1001.44 1001.60 1001.79 1002.02 1002.29 1002.59 1002.91 1003.22 1003.50 1003.72 1003.87 1003.93 1003.92 1003.85 1003.74 1003.63 1003.56 1003.58 1003.70 1003.96 1004.37 1004.92 1005.60 1006.39 1007.25 1008.16 1009.08 1009.98
1004.51 1003.90 1003.29 1002.71 1002.16 1001.68 1001.28 1000.96 1000.73 1000.57 1000.49 1000.46 1000.47 1000.52 1000.60 1000.71 1000.86 1001.06 1001.30 1001.58 1001.90 1002.23 1002.56 1002.86 1003.11 1003.29 1003.41 1003.46 1003.47 1003.45 1003.45 1003.50 1003.63 1003.86 1004.22 1004.70 1005.30 1006.00 1006.77 1007.60 1008.45 1009.29 1010.10
1003.95 1003.32 1002.69 1002.09 1001.53 1001.05 1000.64 1000.31 1000.07 999.90 999.80 999.75 999.75 999.79 999.87 999.99 1000.15 1000.36 1000.61 1000.91 1001.24 1001.59 1001.94 1002.26 1002.55 1002.78 1002.96 1003.09 1003.20 1003.30 1003.42 1003.60 1003.85 1004.20 1004.65 1005.20 1005.84 1006.55 1007.30 1008.07 1008.84 1009.59 1010.31
1003.45 1002.78 1002.13 1001.52 1000.96 1000.47 1000.05 999.72 999.47 999.29 999.18 999.12 999.11 999.15 999.22 999.34 999.51 999.73 999.99 1000.30 1000.64 1001.01 1001.37 1001.72 1002.04 1002.32 1002.57 1002.79 1003.00 1003.22 1003.47 1003.77 1004.15 1004.60 1005.14 1005.75 1006.42 1007.12 1007.84 1008.55 1009.24 1009.90 1010.51
1003.02 1002.33 1001.68 1001.06 1000.51 1000.03 999.63 999.30 999.05 998.87 998.75 998.68 998.65 998.67 998.74 998.85 999.00 999.21 999.47 999.78 1000.12 1000.48 1000.85 1001.22 1001.58 1001.92 1002.23 1002.54 1002.85 1003.17 1003.54 1003.95 1004.43 1004.97 1005.57 1006.22 1006.91 1007.60 1008.28 1008.94 1009.57 1010.15 1010.69
1002.67 1001.99 1001.35 1000.76 1000.24 999.79 999.42 999.12 998.89 998.71 998.58 998.50 998.45 998.45 998.48 998.56 998.68 998.86 999.08 999.36 999.68 1000.03 1000.40 1000.79 1001.17 1001.55 1001.93 1002.31 1002.71 1003.13 1003.59 1004.10 1004.65 1005.26 1005.90 1006.57 1007.26 1007.93 1008.59 1009.20 1009.78 1010.31 1010.80
1002.38 1001.73 1001.13 1000.61 1000.15 999.76 999.45 999.20 999.00 998.84 998.71 998.61 998.54 998.49 998.48 998.49 998.56 998.67 998.84 999.07 999.35 999.67 1000.03 1000.42 1000.82 1001.24 1001.68 1002.13 1002.60 1003.10 1003.63 1004.20 1004.81 1005.45 1006.11 1006.79 1007.46 1008.12 1008.75 1009.34 1009.89 1010.40 1010.87
1002.11 1001.52 1001.00 1000.55 1000.19 999.89 999.66 999.48 999.33 999.20 999.09 998.98 998.87 998.78 998.70 998.64 998.62 998.66 998.75 998.91 999.13 999.41 999.75 1000.14 1000.56 1001.02 1001.50 1002.01 1002.54 1003.10 1003.68 1004.29 1004.93 1005.58 1006.24 1006.90 1007.56 1008.20 1008.81 1009.39 1009.93 1010.44 1010.92
1001.84 1001.32 1000.89 1000.54 1000.28 1000.09 999.96 999.86 999.78 999.71 999.61 999.50 999.37 999.23 999.08 998.95 998.84 998.79 998.79 998.87 999.03 999.27 999.59 999.97 1000.40 1000.89 1001.42 1001.97 1002.56 1003.16 1003.77 1004.40 1005.04 1005.69 1006.34 1006.98 1007.61 1008.22 1008.82 1009.39 1009.94 1010.46 1010.96
1001.54 1001.09 1000.74 1000.50 1000.35 1000.27 1000.24 1000.24 1000.24 1000.22 1000.16 1000.07 999.92 999.74 999.54 999.34 999.16 999.02 998.95 998.96 999.06 999.26 999.55 999.92 1000.37 1000.88 1001.44 1002.04 1002.65 1003.28 1003.92 1004.56 1005.19 1005.81 1006.43 1007.04 1007.64 1008.23 1008.81 1009.38 1009.93 1010.46 1010.98
1001.21 1000.81 1000.54 1000.39 1000.33 1000.35 1000.42 1000.51 1000.59 1000.64 1000.63 1000.56 1000.42 1000.23 1000.00 999.76 999.52 999.33 999.20 999.15 999.21 999.37 999.64 1000.01 1000.46 1000.99 1001.58 1002.19 1002.83 1003.48 1004.12 1004.75 1005.36 1005.96 1006.55 1007.12 1007.69 1008.25 1008.81 1009.36 1009.91 1010.45 1010.97
1000.90 1000.54 1000.31 1000.21 1000.22 1000.32 1000.47 1000.63 1000.78 1000.90 1000.94 1000.91 1000.81 1000.63 1000.40 1000.15 999.89 999.67 999.51 999.43 999.46 999.60 999.85 1000.21 1000.67 1001.21 1001.80 1002.43 1003.07 1003.72 1004.35 1004.96 1005.55 1006.11 1006.66 1007.19 1007.72 1008.26 1008.79 1009.32 1009.85 1010.38 1010.89
1000.69 1000.33 1000.12 1000.04 1000.09 1000.22 1000.41 1000.63 1000.83 1001.00 1001.10 1001.12 1001.06 1000.92 1000.72 1000.48 1000.24 1000.02 999.86 999.77 999.79 999.92 1000.16 1000.51 1000.96 1001.49 1002.08 1002.70 1003.33 1003.96 1004.57 1005.15 1005.70 1006.23 1006.74 1007.24 1007.73 1008.22 1008.72 1009.22 1009.73 1010.22 1010.70
1000.65 1000.28 1000.05 999.97 1000.00 1000.13 1000.33 1000.57 1000.80 1001.00 1001.14 1001.21 1001.20 1001.11 1000.97 1000.78 1000.57 1000.39 1000.24 1000.17 1000.19 1000.31 1000.54 1000.88 1001.31 1001.82 1002.38 1002.97 1003.58 1004.17 1004.75 1005.30 1005.81 1006.30 1006.77 1007.23 1007.68 1008.13 1008.59 1009.05 1009.51 1009.97 1010.41
1000.85 1000.46 1000.20 1000.07 1000.07 1000.16 1000.34 1000.55 1000.78 1000.98 1001.15 1001.26 1001.30 1001.26 1001.17 1001.04 1000.89 1000.75 1000.64 1000.59 1000.62 1000.75 1000.97 1001.29 1001.69 1002.16 1002.68 1003.23 1003.80 1004.35 1004.88 1005.39 1005.86 1006.31 1006.74 1007.15 1007.56 1007.97 1008.38 1008.80 1009.22 1009.63 1010.02
Thickness
5605 5602 5600 5599 5597 5595 5593 5592 5592 5593 5594 5595 5599 5602 5606 5611 5616 5619 5625 5630 5634 5639 5643 5647 5651 5654 5658 5662 5665 5668 5671 5673 5675 5678 5679 5681 5683 5683 5682 5681 5680 5679 5679
5592 5589 5587 5585 5583 5580 5580 5580 5579 5578 5578 5579 5581 5583 5587 5592 5597 5602 5607 5613 5618 5623 5629 5634 5640 5644 5648 5652 5656 5660 5664 5667 5669 5672 5673 5674 5675 5676 5675 5673 5671 5670 5669
5579 5576 5574 5573 5571 5571 5570 5570 5569 5568 5567 5567 5567 5568 5571 5575 5579 5584 5589 5595 5600 5607 5614 5620 5627 5632 5637 5642 5646 5651 5655 5659 5663 5666 5667 5667 5668 5668 5667 5664 5663 5661 5660
5565 5562 5560 5560 5561 5562 5562 5561 5560 5560 5559 5558 5558 5558 5559 5561 5564 5568 5572 5578 5583 5590 5598 5605 5613 5620 5626 5632 5637 5643 5647 5651 5656 5659 5661 5662 5662 5662 5660 5658 5654 5652 5650
5552 5550 5549 5549 5549 5549 5550 5551 5551 5551 5552 5552 5551 5551 5551 5551 5553 5555 5558 5562 5567 5574 5581 5589 5598 5607 5615 5621 5628 5634 5639 5644 5649 5653 5656 5657 5657 5656 5655 5652 5649 5644 5640
5539 5537 5535 5534 5534 5535 5537 5538 5539 5541 5542 5542 5543 5544 5544 5546 5548 5549 5549 5551 5554 5559 5565 5574 5583 5594 5603 5611 5620 5626 5632 5638 5643 5647 5651 5653 5654 5653 5650 5647 5644 5640 5634
5527 5524 5521 5519 5519 5520 5522 5524 5526 5528 5530 5532 5534 5536 5538 5540 5541 5542 5542 5542 5544 5546 5552 5559 5570 5582 5591 5600 5610 5618 5624 5631 5638 5644 5648 5651 5651 5650 5647 5643 5640 5637 5632
5517 5512 5509 5506 5505 5506 5506 5508 5511 5514 5516 5520 5524 5528 5530 5533 5534 5535 5536 5536 5536 5538 5542 5548 5557 5568 5579 5589 5599 5608 5617 5625 5632 5638 5644 5647 5647 5647 5645 5641 5636 5629 5623
5508 5503 5499 5495 5493 5493 5493 5495 5497 5500 5503 5508 5513 5518 5521 5525 5528 5529 5530 5530 5531 5532 5535 5541 5548 5558 5569 5578 5589 5600 5610 5618 5625 5631 5637 5640 5640 5640 5639 5634 5628 5625 5617
5500 5494 5489 5485 5483 5482 5482 5483 5485 5488 5493 5497 5502 5508 5513 5518 5522 5523 5524 5525 5526 5528 5530 5535 5542 5550 5560 5569 5580 5592 5602 5612 5618 5624 5628 5631 5633 5633 5632 5632 5629 5624 5616
5494 5487 5482 5478 5475 5474 5474 5474 5476 5479 5483 5487 5493 5499 5504 5510 5515 5518 5519 5520 5523 5524 5527 5531 5537 5544 5552 5562 5572 5585 5596 5604 5612 5618 5622 5625 5626 5625 5624 5624 5624 5622 5617
5489 5483 5478 5473 5470 5470 5468 5469 5470 5472 5475 5479 5484 5490 5496 5503 5508 5513 5515 5517 5519 5521 5524 5528 5532 5538 5547 5556 5566 5577 5586 5595 5604 5611 5616 5619 5620 5619 5617 5616 5614 5612 5612
5486 5480 5475 5471 5467 5465 5463 5464 5465 5466 5469 5473 5478 5484 5491 5497 5502 5507 5511 5514 5516 5518 5521 5524 5528 5533 5541 5550 5561 5570 5579 5590 5599 5605 5610 5613 5614 5612 5610 5607 5604 5603 5601
5485 5479 5475 5470 5467 5464 5462 5462 5462 5464 5467 5470 5475 5481 5487 5493 5499 5503 5507 5511 5513 5515 5518 5521 5524 5529 5536 5547 5556 5565 5576 5586 5594 5600 5603 5604 5604 5603 5602 5601 5599 5597 5594
5486 5481 5476 5472 5468 5466 5464 5463 5463 5465 5467 5470 5474 5479 5485 5491 5498 5502 5505 5508 5511 5514 5515 5518 5522 5527 5534 5543 5553 5563 5572 5580 5587 5592 5595 5596 5597 5596 5595 5594 5593 5592 5590
5488 5483 5479 5475 5472 5470 5468 5468 5467 5466 5468 5470 5473 5479 5485 5491 5496 5499 5502 5505 5507 5510 5513 5518 5522 5527 5533 5542 5551 5561 5568 5576 5583 5587 5589 5591 5591 5590 5588 5587 5587 5588 5586
5490 5486 5482 5479 5477 5475 5473 5472 5472 5470 5470 5472 5475 5480 5484 5490 5494 5497 5499 5502 5504 5506 5512 5517 5521 5527 5533 5542 5551 5559 5566 5573 5578 5581 5584 5584 5585 5584 5584 5583 5582 5582 5581
5495 5491 5488 5484 5482 5480 5478 5476 5476 5476 5477 5477 5477 5481 5485 5489 5492 5495 5497 5500 5503 5506 5511 5516 5521 5527 5534 5542 5550 5557 5564 5569 5574 5576 5578 5579 5580 5580 5579 5579 5578 5578 5576
5502 5498 5495 5491 5488 5485 5483 5482 5481 5481 5480 5480 5481 5482 5484 5487 5490 5493 5496 5502 5506 5508 5512 5516 5522 5529 5535 5543 5551 5557 5563 5567 5570 5572 5573 5574 5575 5576 5575 5574 5574 5570 5573
5510 5506 5503 5499 5495 5493 5491 5489 5487 5486 5484 5484 5486 5486 5488 5491 5493 5495 5498 5503 5507 5510 5513 5518 5525 5531 5537 5544 5550 5556 5561 5564 5566 5569 5570 5571 5571 5572 5572 5571 5571 5570 5571
5519 5514 5510 5506 5503 5500 5498 5496 5494 5491 5490 5490 5490 5490 5491 5495 5497 5499 5502 5506 5509 5513 5517 5522 5528 5534 5540 5546 5552 5557 5561 5563 5565 5567 5568 5568 5568 5569 5569 5569 5569 5569 5569
5527 5522 5517 5513 5510 5508 5505 5503 5501 5498 5497 5496 5494 5494 5494 5498 5501 5503 5506 5510 5515 5519 5524 5529 5534 5540 5545 5551 5555 5558 5561 5563 5565 5566 5566 5566 5566 5567 5567 5567 5567 5567 5567
5535 5531 5526 5521 5518 5514 5512 5510 5508 5505 5503 5501 5500 5500 5501 5504 5506 5509 5513 5518 5523 5528 5532 5537 5542 5546 5550 5554 5558 5562 5565 5566 5566 5567 5567 5566 5566 5566 5566 5566 5566 5566 5566
5542 5538 5534 5529 5525 5521 5519 5516 5513 5511 5509 5508 5507 5508 5509 5512 5515 5519 5523 5527 5532 5537 5541 5545 5549 5553 5556 5559 5561 5564 5567 5568 5568 5568 5568 5568 5567 5567 5567 5567 5567 5568 5568
5549 5545 5541 5537 5533 5529 5526 5523 5520 5518 5517 5517 5517 5518 5520 5523 5525 5529 5533 5536 5541 5545 5549 5552 5555 5558 5560 5563 5565 5567 5568 5569 5569 5570 5569 5570 5569 5569 5569 5568 5568 5567 5566
5553 5551 5547 5544 5540 5537 5534 5531 5528 5526 5526 5526 5527 5528 5530 5533 5536 5539 5543 5547 5550 5553 5556 5558 5561 5563 5565 5567 5568 5569 5569 5569 5570 5571 5572 5571 5570 5570 5569 5569 5568 5567 5566